EW5254 Weather Reports


Display with metric or nautical units.
time (UTC)temp
F
wind
direction
speed
MPH
gust
MPH
rain 1hr
in
rain 24hr
in
rain mn
in
humidity
%
barometer
mb
20260902084602 74 141 12.0 17.0 0.00 0.57 0.00 58 1004.3
20260902083105 74 162 8.0 15.0 0.00 0.57 0.00 58 1004.3
20260902081611 73 182 10.0 15.0 0.00 0.57 0.00 60 1004.3
20260902080058 73 184 10.0 14.0 0.00 0.57 0.00 60 1004.2
20260902074548 73 175 10.0 14.0 0.00 0.57 0.00 59 1004.2
20260902073045 74 171 12.0 19.0 0.00 0.57 0.00 58 1004.3
20260902071549 74 151 10.0 18.0 0.00 0.57 0.00 57 1004.4
20260902070043 74 144 8.0 15.0 0.00 0.57 0.00 58 1004.4
20260902064542 74 156 10.0 18.0 0.00 0.57 0.00 58 1004.5
20260902063101 74 136 9.0 14.0 0.00 0.57 0.00 58 1004.4
20260902061545 74 153 9.0 15.0 0.00 0.57 0.00 57 1004.4
20260902060053 74 167 10.0 16.0 0.00 0.57 0.00 57 1004.5
20260902054537 75 157 10.0 14.0 0.00 0.57 0.00 56 1004.5
20260902053034 75 159 10.0 16.0 0.00 0.57 0.00 56 1004.4
20260902051532 75 150 11.0 17.0 0.00 0.57 0.00 55 1004.5
20260902050028 75 130 8.0 20.0 0.00 0.57 0.00 55 1004.3
20260902044540 74 157 8.0 15.0 0.00 0.57 0.57 56 1004.5
20260902043028 74 157 10.0 18.0 0.00 0.57 0.57 58 1004.5
20260902041527 74 129 10.0 17.0 0.00 0.57 0.57 58 1004.4
20260902040030 74 160 8.0 15.0 0.00 0.57 0.57 58 1004.4
20260902034527 74 157 9.0 18.0 0.00 0.57 0.57 57 1004.5
20260902033026 73 178 10.0 17.0 0.00 0.57 0.57 59 1004.3
20260902031536 74 138 9.0 21.0 0.00 0.57 0.57 58 1004.2
20260902030025 73 168 11.0 20.0 0.00 0.57 0.57 58 1003.9
20260902024525 72 165 10.0 15.0 0.00 0.57 0.57 59 1003.8
20260902023024 73 184 11.0 18.0 0.00 0.57 0.57 59 1003.5
20260902021537 73 194 12.0 17.0 0.00 0.57 0.57 59 1003.2
20260902020027 74 194 9.0 15.0 0.00 0.57 0.57 58 1003.1
20260902014542 75 205 9.0 14.0 0.00 0.57 0.57 55 1002.9
20260902013021 75 201 10.0 15.0 0.00 0.57 0.57 55 1002.9
20260902011521 74 192 8.0 14.0 0.00 0.57 0.57 58 1002.8
20260902010023 75 186 9.0 14.0 0.00 0.57 0.57 55 1003.0
20260902004524 76 221 5.0 10.0 0.00 0.57 0.57 55 1002.7
20260902003019 76 240 7.0 12.0 0.00 0.57 0.57 53 1002.7
20260902001519 77 234 6.0 14.0 0.00 0.57 0.57 52 1002.9
20260902000032 81 252 10.0 15.0 0.00 0.57 0.57 45 1002.9
20260901234535 82 57 1.0 4.0 0.00 0.57 0.57 41 1002.4
20260901233017 84 57 2.0 6.0 0.00 0.57 0.57 37 1002.1
20260901231517 83 57 3.0 6.0 0.00 0.57 0.57 39 1002.0
20260901230017 84 80 5.0 10.0 0.00 0.57 0.57 37 1002.1
20260901224516 83 66 2.0 8.0 0.00 0.57 0.57 42 1002.0
20260901223016 82 107 4.0 8.0 0.00 0.57 0.57 44 1002.0
20260901221536 80 126 3.0 7.0 0.00 0.57 0.57 46 1002.0
20260901220015 78 107 4.0 8.0 0.00 0.57 0.57 51 1001.7
20260901214513 77 98 5.0 9.0 0.00 0.57 0.57 53 1001.8
20260901213013 76 79 5.0 13.0 0.04 0.57 0.57 55 1002.0
20260901211519 75 53 4.0 6.0 0.06 0.57 0.57 61 1002.5
20260901210017 73 60 1.0 4.0 0.17 0.57 0.57 65 1002.7
20260901204517 71 5 0.0 4.0 0.30 0.57 0.57 72 1002.9
20260901203016 69 192 5.0 12.0 0.28 0.54 0.54 71 1003.4
20260901201528 68 305 7.0 11.0 0.52 0.52 0.52 76 1003.4
20260901200009 68 263 3.0 16.0 0.39 0.39 0.39 78 1003.5
20260901194508 69 296 6.0 15.0 0.28 0.28 0.28 74 1003.4
20260901193001 73 304 19.0 30.0 0.23 0.23 0.23 66 1003.1
20260901191603 81 5 2.0 10.0 0.00 0.00 0.00 41 1003.2
20260901190100 84 344 6.0 16.0 0.00 0.00 0.00 40 1003.2
20260901184607 86 355 1.0 11.0 0.00 0.00 0.00 36 1003.5
20260901183103 86 230 3.0 9.0 0.00 0.00 0.00 35 1003.5
20260901181556 86 233 5.0 11.0 0.00 0.00 0.00 36 1003.7
20260901180055 86 107 8.0 12.0 0.00 0.00 0.00 36 1004.0
20260901174554 83 155 8.0 17.0 0.00 0.00 0.00 39 1004.2
20260901173053 86 221 8.0 12.0 0.00 0.00 0.00 37 1004.2
20260901171557 84 142 4.0 13.0 0.00 0.00 0.00 38 1004.3
20260901170048 83 232 5.0 11.0 0.00 0.00 0.00 40 1004.4
20260901164545 81 248 5.0 14.0 0.00 0.00 0.00 42 1004.5
20260901163046 81 224 7.0 14.0 0.00 0.00 0.00 42 1004.4
20260901161546 81 229 7.0 14.0 0.00 0.00 0.00 43 1004.4
20260901160051 80 198 9.0 14.0 0.00 0.00 0.00 43 1004.3
20260901154538 79 186 10.0 15.0 0.00 0.00 0.00 45 1004.3
20260901153038 78 178 9.0 15.0 0.00 0.00 0.00 47 1004.2
20260901151534 77 191 9.0 17.0 0.00 0.00 0.00 48 1004.1
20260901150035 78 160 11.0 15.0 0.00 0.00 0.00 46 1003.9
20260901144531 77 184 8.0 15.0 0.00 0.00 0.00 47 1003.9
20260901143029 75 150 3.0 7.0 0.00 0.00 0.00 55 1004.1
20260901141525 74 157 4.0 11.0 0.00 0.00 0.00 56 1004.2
20260901140023 73 132 4.0 7.0 0.00 0.00 0.00 57 1004.0
20260901134540 72 200 2.0 7.0 0.00 0.00 0.00 60 1004.0
20260901133022 71 146 4.0 10.0 0.00 0.00 0.00 63 1003.9
20260901131521 69 163 4.0 7.0 0.00 0.00 0.00 66 1003.8
20260901130020 69 169 0.0 2.0 0.00 0.00 0.00 65 1003.8
20260901124523 69 169 0.0 3.0 0.00 0.00 0.00 64 1003.7
20260901123016 70 24 0.0 2.0 0.00 0.00 0.00 63 1003.4
20260901121514 70 31 0.0 4.0 0.00 0.00 0.00 63 1003.1
20260901120010 71 317 0.0 3.0 0.00 0.00 0.00 61 1003.1
20260901114508 72 30 0.0 4.0 0.00 0.00 0.00 57 1002.9
20260901113013 72 180 3.0 7.0 0.00 0.00 0.00 57 1002.6
20260901111505 72 182 4.0 8.0 0.00 0.00 0.00 57 1002.6
20260901110005 72 230 2.0 8.0 0.00 0.00 0.00 58 1002.7
20260901104504 72 197 0.0 9.0 0.00 0.00 0.00 58 1002.5
20260901103005 71 277 1.0 7.0 0.00 0.00 0.00 60 1002.3
20260901101615 73 255 6.0 9.0 0.00 0.00 0.00 56 1002.4
20260901100114 73 182 7.0 12.0 0.00 0.00 0.00 56 1002.1
20260901094559 73 171 7.0 15.0 0.00 0.00 0.00 57 1002.1
20260901093057 73 184 8.0 15.0 0.00 0.00 0.00 58 1002.1
20260901091557 73 216 11.0 16.0 0.00 0.00 0.00 57 1002.1
20260901090101 73 148 11.0 20.0 0.00 0.00 0.00 57 1002.0